Date String (YYYY-MM-DD hh:mm:ss) UTC,Instrument flags,absolute air pressure of the measurement (hPa),sample flow rate (lpm),inlet stack bypass flow (lpm),air temperature of the measurement (°C),ambient temperature measured by the external sensor (°C),aerosol sample conditioner tube jacket temperature (°C),OPC LED temperature (°C),internal box temperature (°C),relative humidity of the measurement (%),span deviation,mass concentration of particles derived from Lorenz-Mie calculation of OPC scattering (μg/m³),mass concentration of particles derived from Lorenz-Mie calculation of OPC scattering (μg/m³),mass concentration of particles derived from Lorenz-Mie calculation of OPC scattering (μg/m³)
DateTimeUTC,F1_M11,P_M11,Q1_M11,Q2_M11,T1_M11,T2_M11,T3_M11,T4_M11,T5_M11,U1_M11,ZSPAN_M11,X2_M11,X0_M11,X1_M11
2024-03-01 05:00:00,SystemResetWarning,0823.1,5.00,000.00,024.0,023.1,000.0,032.4,025.8,06.7,0000.0,0003.01,0007.40,0001.74
2024-03-01 05:01:00,SystemResetWarning,0823.1,4.98,000.00,024.0,023.1,000.0,032.4,025.7,06.8,0000.0,0003.03,0007.33,0001.76
2024-03-01 05:02:00,SystemResetWarning,0823.0,5.00,000.00,024.0,023.1,000.0,032.4,025.7,06.6,0000.0,0003.08,0007.38,0001.79
2024-03-01 05:03:00,SystemResetWarning,0823.0,5.00,000.00,024.0,023.1,000.0,032.4,025.7,06.6,0000.0,0003.06,0007.35,0001.80
2024-03-01 05:04:00,SystemResetWarning,0823.0,5.00,000.00,024.0,023.1,000.0,032.4,025.7,06.5,0000.0,0003.07,0007.36,0001.80
2024-03-01 05:05:00,SystemResetWarning,0823.0,5.00,000.00,024.0,023.1,000.0,032.4,025.7,06.5,0000.0,0003.14,0007.55,0001.81
2024-03-01 05:06:00,SystemResetWarning,0823.0,5.00,000.00,024.0,023.1,000.0,032.4,025.7,06.6,0000.0,0003.10,0007.56,0001.82
2024-03-01 05:07:00,SystemResetWarning,0823.0,5.00,000.00,024.0,023.0,000.0,032.4,025.7,06.5,0000.0,0003.08,0007.37,0001.82
2024-03-01 05:08:00,SystemResetWarning,0822.9,5.01,000.00,024.0,023.0,000.0,032.4,025.7,06.4,0000.0,0003.08,0006.98,0001.83
2024-03-01 05:09:00,SystemResetWarning,0822.8,5.00,000.00,024.0,023.0,000.0,032.4,025.7,06.3,0000.0,0003.12,0005.79,0001.85
2024-03-01 05:10:00,SystemResetWarning,0822.9,5.00,000.00,024.0,023.0,000.0,032.4,025.7,06.2,0000.0,0003.13,0006.35,0001.86
2024-03-01 05:11:00,SystemResetWarning,0822.9,5.00,000.00,024.0,023.0,000.0,032.4,025.6,06.2,0000.0,0003.15,0007.19,0001.87
2024-03-01 05:12:00,SystemResetWarning,0823.0,5.00,000.00,024.0,023.0,000.0,032.4,025.7,06.1,0000.0,0003.14,0007.21,0001.87
2024-03-01 05:13:00,SystemResetWarning,0823.0,5.00,000.00,024.0,023.0,000.0,032.4,025.7,06.2,0000.0,0003.18,0007.40,0001.86
2024-03-01 05:14:00,SystemResetWarning,0823.0,5.00,000.00,023.9,023.0,000.0,032.4,025.7,06.3,0000.0,0003.20,0007.48,0001.85
2024-03-01 05:15:00,SystemResetWarning,0823.0,5.00,000.00,023.9,023.0,000.0,032.4,025.7,06.3,0000.0,0003.21,0007.56,0001.86
2024-03-01 05:16:00,SystemResetWarning,0822.9,5.00,000.00,023.9,023.0,000.0,032.4,025.7,06.3,0000.0,0003.17,0007.52,0001.85
2024-03-01 05:17:00,SystemResetWarning,0822.9,4.99,000.00,023.9,023.0,000.0,032.4,025.6,06.3,0000.0,0003.17,0007.47,0001.85
2024-03-01 05:18:00,SystemResetWarning,0823.0,5.00,000.00,023.9,022.9,000.0,032.4,025.6,06.3,0000.0,0003.20,0007.45,0001.85
2024-03-01 05:19:00,SystemResetWarning,0823.0,5.00,000.00,023.9,022.9,000.0,032.4,025.6,06.4,0000.0,0003.22,0007.50,0001.87
2024-03-01 05:20:00,SystemResetWarning,0822.8,5.00,000.00,023.9,022.9,000.0,032.3,025.6,06.4,0000.0,0003.20,0007.47,0001.87
2024-03-01 05:21:00,SystemResetWarning,0823.0,5.01,000.00,023.9,022.9,000.0,032.3,025.6,06.5,0000.0,0003.21,0007.42,0001.88
2024-03-01 05:22:00,SystemResetWarning,0823.0,5.00,000.00,023.9,022.9,000.0,032.3,025.6,06.4,0000.0,0003.17,0006.25,0001.86
2024-03-01 05:23:00,SystemResetWarning,0822.8,4.99,000.00,023.9,022.9,000.0,032.3,025.6,06.4,0000.0,0003.16,0006.12,0001.84
2024-03-01 05:24:00,SystemResetWarning,0822.8,4.99,000.00,023.9,022.9,000.0,032.3,025.6,06.4,0000.0,0003.13,0006.16,0001.82
2024-03-01 05:25:00,SystemResetWarning,0823.1,5.01,000.00,023.9,022.9,000.0,032.3,025.6,06.3,0000.0,0003.12,0006.11,0001.82
2024-03-01 05:26:00,SystemResetWarning,0822.9,5.01,000.00,023.9,022.9,000.0,032.3,025.6,06.4,0000.0,0003.09,0007.01,0001.79
2024-03-01 05:27:00,SystemResetWarning,0822.9,4.98,000.00,023.9,023.0,000.0,032.3,025.6,06.4,0000.0,0003.10,0007.04,0001.79
2024-03-01 05:28:00,SystemResetWarning,0822.9,4.99,000.00,023.9,023.0,000.0,032.3,025.6,06.4,0000.0,0003.13,0007.11,0001.80
2024-03-01 05:29:00,SystemResetWarning,0823.0,5.00,000.00,023.9,023.0,000.0,032.2,025.6,06.6,0000.0,0003.09,0006.92,0001.79
2024-03-01 05:30:00,SystemResetWarning,0823.1,5.00,000.00,023.9,023.0,000.0,032.2,025.6,06.5,0000.0,0003.08,0007.10,0001.75
2024-03-01 05:31:00,SystemResetWarning,0823.2,5.00,000.00,023.9,023.0,000.0,032.2,025.6,06.4,0000.0,0003.08,0007.60,0001.75
2024-03-01 05:32:00,SystemResetWarning,0823.1,5.00,000.00,023.8,023.0,000.0,032.2,025.6,06.4,0000.0,0003.08,0007.60,0001.75
2024-03-01 05:33:00,SystemResetWarning,0822.9,5.01,000.00,023.8,023.0,000.0,032.2,025.6,06.4,0000.0,0003.14,0007.71,0001.75
2024-03-01 05:34:00,SystemResetWarning,0822.8,5.00,000.00,023.8,023.0,000.0,032.2,025.6,06.4,0000.0,0003.14,0007.82,0001.76
2024-03-01 05:35:00,SystemResetWarning,0822.8,4.99,000.00,023.8,023.0,000.0,032.2,025.6,06.3,0000.0,0003.13,0007.72,0001.76
2024-03-01 05:36:00,SystemResetWarning,0822.7,4.99,000.00,023.8,023.0,000.0,032.2,025.6,06.3,0000.0,0003.13,0007.69,0001.76
2024-03-01 05:37:00,SystemResetWarning,0822.7,4.99,000.00,023.8,022.9,000.0,032.2,025.5,06.5,0000.0,0003.13,0007.25,0001.77
2024-03-01 05:38:00,SystemResetWarning,0822.8,5.00,000.00,023.8,022.9,000.0,032.2,025.5,06.4,0000.0,0003.11,0006.90,0001.77
2024-03-01 05:39:00,SystemResetWarning,0822.7,5.01,000.00,023.8,022.9,000.0,032.2,025.5,06.5,0000.0,0003.10,0006.79,0001.75
2024-03-01 05:40:00,SystemResetWarning,0822.8,5.01,000.00,023.8,022.9,000.0,032.2,025.5,06.5,0000.0,0003.09,0006.80,0001.74
2024-03-01 05:41:00,SystemResetWarning,0822.7,5.00,000.00,023.8,023.0,000.0,032.2,025.5,06.3,0000.0,0003.07,0006.66,0001.75
2024-03-01 05:42:00,SystemResetWarning,0822.7,4.98,000.00,023.8,023.0,000.0,032.2,025.5,06.3,0000.0,0003.10,0006.01,0001.74
2024-03-01 05:43:00,SystemResetWarning,0823.0,5.00,000.00,023.8,023.0,000.0,032.2,025.5,06.4,0000.0,0003.05,0005.78,0001.72
2024-03-01 05:44:00,SystemResetWarning,0822.6,5.01,000.00,023.8,023.0,000.0,032.2,025.5,06.3,0000.0,0002.95,0005.55,0001.72
2024-03-01 05:45:00,SystemResetWarning,0822.6,5.00,000.00,023.8,023.0,000.0,032.2,025.5,06.3,0000.0,0002.98,0005.45,0001.73
2024-03-01 05:46:00,SystemResetWarning,0822.6,5.00,000.00,023.8,023.0,000.0,032.2,025.5,06.3,0000.0,0003.00,0005.80,0001.73
2024-03-01 05:47:00,SystemResetWarning,0822.7,5.00,000.00,023.8,023.0,000.0,032.1,025.5,06.3,0000.0,0003.03,0005.97,0001.73
2024-03-01 05:48:00,SystemResetWarning,0822.6,5.00,000.00,023.8,023.0,000.0,032.1,025.5,06.3,0000.0,0003.10,0006.23,0001.74
2024-03-01 05:49:00,SystemResetWarning,0822.8,5.00,000.00,023.8,022.9,000.0,032.2,025.5,06.9,0000.0,0003.13,0006.34,0001.75
2024-03-01 05:50:00,SystemResetWarning,0822.9,5.00,000.00,023.8,022.9,000.0,032.2,025.5,06.7,0000.0,0003.11,0006.36,0001.75
2024-03-01 05:51:00,SystemResetWarning,0822.9,4.99,000.00,023.8,022.9,000.0,032.1,025.5,06.6,0000.0,0003.12,0006.75,0001.73
2024-03-01 05:52:00,SystemResetWarning,0823.0,5.00,000.00,023.8,022.9,000.0,032.1,025.5,06.5,0000.0,0003.13,0007.05,0001.73
2024-03-01 05:53:00,SystemResetWarning,0822.7,5.00,000.00,023.8,022.9,000.0,032.1,025.5,06.5,0000.0,0003.13,0007.41,0001.72
2024-03-01 05:54:00,SystemResetWarning,0822.6,5.00,000.00,023.8,022.9,000.0,032.1,025.5,06.5,0000.0,0003.12,0007.42,0001.72
2024-03-01 05:55:00,SystemResetWarning,0822.7,5.01,000.00,023.8,022.9,000.0,032.1,025.5,06.5,0000.0,0003.13,0007.45,0001.71
2024-03-01 05:56:00,SystemResetWarning,0822.9,5.00,000.00,023.8,022.9,000.0,032.1,025.5,06.6,0000.0,0003.12,0007.44,0001.70
2024-03-01 05:57:00,SystemResetWarning,0822.6,5.00,000.00,023.8,022.9,000.0,032.1,025.5,06.5,0000.0,0003.10,0007.21,0001.69
2024-03-01 05:58:00,SystemResetWarning,0822.4,5.00,000.00,023.8,022.9,000.0,032.1,025.5,06.5,0000.0,0003.10,0007.02,0001.70
2024-03-01 05:59:00,SystemResetWarning,0822.5,5.00,000.00,023.8,022.9,000.0,032.1,025.5,06.5,0000.0,0002.99,0006.59,0001.68
